Wind_Speed
37 36 35 34 32 31 31 31 30 28 26 25 24 24 24 24 23 22 21 21 20 20 20 21 21 22 22 22 24 25 26 27 28 29 32 34 35 36 37 38 39 40 40 41
39 38 37 36 34 33 32 31 31 29 27 26 27 26 26 25 25 24 24 23 22 22 22 23 23 24 24 25 25 27 28 29 30 31 32 34 36 38 38 39 40 41 41 42
40 38 39 38 34 33 32 31 31 30 28 28 28 28 28 27 27 26 25 25 25 25 25 25 25 26 27 27 28 29 30 31 32 33 33 34 36 37 38 39 40 41 43 44
42 40 40 37 35 34 33 32 32 31 30 29 29 29 29 29 29 28 28 28 27 28 28 28 28 28 28 29 30 30 32 33 33 34 35 36 37 38 39 41 42 43 44 46
41 41 41 37 35 34 34 33 32 31 30 31 31 31 31 31 31 31 31 30 30 29 30 30 31 31 31 31 32 32 33 34 35 35 36 38 38 39 40 41 43 44 45 46
41 42 42 38 36 35 35 35 32 32 31 31 32 33 32 32 32 32 32 32 32 32 32 32 32 33 33 33 33 34 34 34 35 37 38 39 40 41 41 42 43 45 46 47
41 42 42 40 38 37 37 36 35 34 33 32 33 34 34 33 33 33 33 33 33 33 34 34 34 35 35 35 35 35 35 36 36 37 39 40 41 42 42 42 43 44 46 46
41 43 42 40 40 38 38 37 37 36 35 34 34 35 35 35 35 35 34 34 34 34 35 35 35 36 36 35 35 36 36 36 37 38 39 40 41 42 43 43 44 44 45 46
42 42 41 41 42 41 40 40 39 38 37 37 36 36 36 36 36 36 36 36 36 36 36 36 37 37 36 36 37 37 38 38 39 40 40 40 41 41 42 43 43 44 45 45
42 42 42 42 42 42 42 42 41 40 39 39 38 37 37 37 37 37 37 37 37 37 38 38 38 38 38 38 38 39 39 40 40 40 40 41 41 42 42 43 43 44 45 45
42 41 42 42 43 43 43 42 41 40 39 39 39 38 38 38 38 38 38 38 38 38 38 38 38 39 39 40 40 40 41 41 41 41 41 42 42 42 43 43 44 44 44 44
39 39 40 40 41 42 42 42 41 40 40 39 39 39 38 38 39 39 39 39 39 39 38 38 39 39 40 41 41 41 41 41 42 42 43 43 43 43 44 44 44 43 43 44
38 38 38 39 39 40 40 40 40 39 39 39 39 39 39 39 40 40 40 40 40 39 39 40 40 40 41 42 42 42 42 42 43 43 44 44 44 44 43 43 44 44 44 45
38 37 37 37 38 38 38 38 38 38 39 39 40 40 40 40 40 39 39 40 40 40 40 40 41 41 42 42 43 43 43 44 44 44 45 45 44 44 43 43 43 44 45 45
36 36 36 36 36 36 37 37 38 39 39 40 40 41 41 40 40 40 40 40 40 40 41 41 42 42 42 43 43 43 44 44 45 45 45 45 45 45 45 45 45 45 45 46
35 35 36 36 36 36 36 37 38 39 40 40 40 40 40 41 41 41 41 41 41 41 42 42 42 42 43 44 44 44 44 44 45 45 45 45 45 45 45 45 46 46 47 47
34 35 36 36 36 36 37 38 39 40 40 40 40 40 40 41 41 41 42 42 42 42 43 43 43 44 44 45 45 44 44 45 45 45 45 45 45 45 46 46 46 46 46 46
34 35 36 37 37 37 37 38 39 39 39 39 40 40 40 41 41 41 41 42 42 43 43 44 44 45 45 45 45 45 45 45 45 45 45 45 45 45 46 45 45 45 45 44
33 34 36 37 37 37 38 38 39 39 39 39 40 40 41 41 40 40 40 41 42 43 43 44 45 45 45 45 45 45 46 46 45 45 45 45 45 45 44 43 42 42 42 42
31 33 34 35 35 36 36 37 37 38 39 39 40 40 40 40 40 41 41 42 43 43 43 44 43 43 43 44 45 45 45 45 45 44 44 43 43 42 41 41 40 40 39 39
30 31 31 32 33 34 34 35 35 36 37 38 38 38 38 39 40 41 42 42 42 43 43 43 42 43 43 43 43 43 43 42 42 41 41 40 39 39 39 38 38 37 37 36
30 30 31 31 31 32 33 34 34 35 36 37 37 38 39 39 40 40 41 41 42 42 42 42 42 42 42 41 41 41 40 40 39 39 38 37 37 37 36 36 35 34 34 33
30 31 32 32 32 32 33 33 34 35 36 37 38 38 39 39 39 39 39 40 41 41 41 41 41 40 39 39 38 38 37 37 37 36 35 35 35 34 34 33 32 32 31 31
31 31 32 33 33 33 33 34 35 35 36 36 37 37 38 38 38 38 39 39 39 38 38 38 38 37 36 36 35 35 35 35 34 34 33 33 33 32 31 30 30 29 29 28
31 31 32 32 33 33 34 35 35 35 35 36 36 37 37 37 37 37 36 36 36 35 35 35 34 34 33 33 33 33 33 33 32 32 32 31 30 30 29 29 28 27 27 26
30 30 31 31 32 32 33 33 33 34 34 35 35 35 35 35 35 35 35 34 34 34 33 33 32 32 32 32 31 31 31 31 30 30 29 29 29 28 28 27 26 25 25 24
29 30 30 30 30 30 30 31 31 31 32 32 32 32 33 33 33 33 33 33 33 33 32 32 31 31 30 30 29 29 29 29 28 28 27 27 26 26 25 24 23 23 22 22
Wind_Direction
273 274 275 275 275 275 276 278 280 284 284 285 284 283 284 284 285 285 285 286 284 283 281 279 276 273 272 272 270 268 267 266 264 264 262 260 260 260 261 261 260 260 261 262
271 271 272 271 271 272 273 274 277 279 281 281 281 281 281 280 281 282 282 284 284 283 281 278 276 275 274 272 270 268 269 269 268 268 267 265 263 264 265 264 262 261 263 264
269 269 269 268 269 271 271 272 274 276 278 277 278 279 281 279 279 280 282 281 282 282 281 280 279 277 276 275 273 271 269 268 269 269 269 268 267 267 267 266 264 264 265 265
269 268 267 270 270 271 271 272 272 274 274 274 274 277 279 279 277 278 279 280 280 281 281 281 280 280 278 277 275 274 271 269 270 270 270 270 269 268 268 268 267 267 267 267
268 268 269 269 270 270 270 270 271 272 273 272 272 274 276 277 276 276 277 278 279 280 281 281 281 281 280 280 278 277 274 272 271 271 271 271 272 271 270 270 268 267 267 268
266 267 268 270 270 269 269 269 269 270 272 272 273 274 275 275 275 275 276 277 278 279 279 280 280 280 280 280 279 278 276 275 273 273 272 271 271 271 271 271 270 269 269 270
265 267 267 269 270 270 269 270 270 270 271 272 273 274 275 274 273 273 275 276 278 278 278 279 279 279 280 280 280 280 278 277 276 275 272 271 271 271 271 271 271 271 271 271
264 266 268 269 269 268 269 268 269 269 270 272 273 274 274 273 273 273 274 276 277 277 277 278 279 280 279 280 280 280 280 279 276 276 274 273 273 274 273 273 273 273 273 273
264 266 267 268 268 267 267 267 268 268 269 271 272 272 272 272 272 272 273 274 275 275 275 276 277 278 278 279 279 279 280 279 278 278 277 276 276 277 276 276 276 275 275 275
264 265 264 266 267 267 267 267 268 269 270 270 272 272 272 272 273 273 272 272 273 273 274 275 275 276 277 277 279 279 280 280 279 279 278 279 279 279 279 279 279 279 278 278
263 264 264 265 266 266 266 267 268 270 271 271 271 272 273 273 274 274 273 273 273 273 274 274 275 275 276 277 279 280 280 279 279 279 279 279 280 280 280 281 281 281 280 279
265 264 264 264 265 265 266 267 269 269 269 270 271 273 274 274 273 273 274 274 274 275 275 276 276 277 277 278 279 280 280 280 280 280 280 280 281 281 282 282 281 280 280 280
265 264 264 265 266 266 267 268 268 267 267 269 271 273 273 273 273 273 274 274 274 275 275 276 277 277 278 278 279 280 280 281 282 282 282 282 282 282 282 283 282 281 280 281
265 265 265 266 266 267 267 267 266 266 267 268 270 271 272 273 273 274 275 275 275 276 276 277 277 278 279 279 280 281 281 282 283 283 283 283 282 282 282 283 282 282 282 281
265 266 267 267 268 268 268 267 267 267 268 269 270 271 272 272 272 273 274 274 275 276 277 278 278 279 280 280 281 282 283 283 284 284 284 283 283 283 282 283 283 283 283 283
265 267 268 269 270 271 270 269 268 268 269 270 271 272 273 273 274 274 274 274 275 276 277 278 279 280 280 281 282 283 283 283 284 284 285 284 284 283 283 283 283 283 283 283
267 267 268 269 271 271 270 269 268 269 271 272 274 274 274 274 274 274 274 275 276 277 277 278 279 280 282 282 283 283 283 283 285 285 285 285 285 284 284 284 284 283 283 282
268 269 270 270 271 271 271 271 271 272 272 273 274 274 275 275 275 276 276 276 277 277 278 280 281 281 282 282 283 283 284 284 285 285 285 285 285 285 285 285 284 283 282 282
271 270 270 271 272 272 273 272 272 272 273 273 274 275 276 277 277 277 277 278 278 278 279 280 281 282 282 283 283 283 284 284 284 285 285 286 286 286 285 284 283 283 281 280
273 272 272 272 272 272 273 273 273 273 273 273 275 276 276 277 277 277 278 278 279 279 280 281 282 282 282 283 283 284 284 284 284 285 285 285 285 285 284 283 283 282 281 280
274 274 274 273 273 273 274 274 273 273 274 275 276 277 278 278 278 279 279 279 279 280 281 282 282 283 283 283 284 285 285 285 285 284 284 284 284 284 284 284 284 283 281 281
274 274 274 274 275 276 277 276 275 275 276 277 277 278 279 279 280 280 280 280 280 280 281 282 283 283 283 283 284 285 285 285 285 285 284 284 284 284 285 285 284 284 282 281
276 275 275 276 277 277 277 277 277 277 278 278 278 279 280 281 281 281 281 281 281 281 281 281 281 282 282 282 284 285 285 286 285 285 285 285 285 285 285 285 284 283 281 281
278 278 278 279 279 279 279 279 279 279 279 280 281 281 282 282 281 282 282 283 283 282 282 282 281 281 282 283 284 285 286 286 285 285 285 285 285 285 285 284 284 283 281 281
280 280 281 281 281 281 280 280 280 280 281 281 282 283 283 283 282 282 282 282 282 283 283 283 282 282 283 283 284 285 286 286 286 286 286 285 284 284 283 283 282 281 279 279
283 282 282 282 283 283 282 282 282 282 283 283 283 283 283 283 282 282 281 281 282 283 283 283 282 282 283 283 284 285 286 285 285 286 286 286 285 283 281 280 280 278 276 276
284 284 284 284 284 284 284 284 285 285 285 285 285 284 284 284 283 282 282 282 283 283 282 281 281 281 282 283 284 285 286 286 286 286 286 286 285 283 280 278 277 276 275 275
Height
5646 5646 5646 5647 5647 5647 5646 5646 5646 5646 5646 5646 5644 5643 5642 5641 5639 5638 5638 5637 5637 5636 5635 5634 5634 5634 5634 5634 5634 5633 5634 5635 5636 5637 5638 5639 5640 5642 5643 5645 5646 5648 5649 5650
5636 5637 5636 5637 5638 5638 5638 5638 5638 5638 5639 5639 5637 5636 5635 5634 5633 5633 5633 5632 5631 5630 5629 5628 5628 5628 5627 5627 5627 5627 5627 5627 5627 5628 5629 5630 5630 5631 5632 5634 5635 5636 5637 5638
5625 5627 5625 5626 5630 5630 5630 5630 5631 5630 5632 5631 5630 5628 5628 5628 5627 5626 5626 5625 5625 5624 5623 5622 5621 5621 5620 5620 5619 5619 5618 5618 5618 5618 5619 5619 5620 5621 5621 5622 5623 5624 5624 5625
5613 5615 5614 5620 5621 5621 5621 5621 5622 5622 5623 5622 5621 5620 5620 5620 5619 5619 5618 5618 5617 5616 5615 5614 5613 5613 5612 5611 5610 5610 5609 5609 5608 5608 5608 5608 5609 5609 5610 5610 5611 5611 5612 5612
5601 5601 5603 5609 5610 5611 5611 5612 5613 5613 5613 5613 5612 5612 5612 5611 5611 5610 5610 5609 5609 5608 5607 5606 5605 5604 5603 5602 5601 5600 5600 5599 5598 5598 5598 5597 5597 5597 5597 5598 5598 5599 5599 5599
5591 5591 5592 5599 5600 5600 5602 5602 5604 5603 5603 5604 5603 5603 5604 5602 5602 5601 5601 5600 5599 5598 5598 5597 5596 5594 5593 5592 5591 5590 5589 5589 5588 5587 5587 5586 5586 5586 5585 5585 5585 5585 5586 5585
5581 5580 5583 5588 5589 5590 5592 5593 5593 5593 5593 5593 5593 5594 5594 5593 5592 5592 5591 5591 5590 5589 5588 5587 5586 5584 5583 5582 5581 5580 5579 5578 5577 5576 5576 5575 5575 5574 5573 5573 5572 5572 5572 5571
5571 5571 5576 5578 5578 5579 5580 5580 5581 5582 5582 5582 5583 5583 5582 5582 5582 5581 5581 5580 5579 5579 5578 5577 5575 5574 5573 5572 5571 5569 5568 5567 5566 5565 5564 5563 5563 5562 5561 5560 5559 5558 5558 5557
5561 5563 5564 5565 5566 5567 5568 5569 5570 5570 5571 5572 5572 5572 5572 5572 5571 5571 5570 5569 5569 5568 5567 5566 5564 5563 5562 5561 5560 5559 5558 5556 5555 5554 5552 5551 5550 5549 5548 5547 5546 5545 5544 5543
5548 5550 5552 5553 5554 5555 5557 5558 5558 5559 5560 5561 5561 5561 5561 5561 5560 5560 5559 5558 5557 5557 5556 5555 5553 5552 5551 5550 5549 5548 5547 5545 5543 5542 5541 5539 5538 5536 5535 5534 5532 5531 5530 5529
5536 5538 5540 5541 5542 5544 5545 5546 5547 5548 5548 5549 5549 5549 5549 5549 5549 5548 5548 5547 5546 5545 5544 5543 5542 5541 5540 5538 5537 5536 5534 5533 5531 5530 5528 5527 5525 5524 5522 5521 5519 5517 5516 5515
5525 5528 5528 5530 5530 5532 5533 5534 5535 5536 5536 5537 5537 5537 5537 5537 5537 5536 5536 5535 5534 5533 5532 5531 5530 5529 5528 5526 5525 5523 5522 5520 5519 5517 5516 5514 5513 5511 5509 5507 5506 5504 5502 5501
5514 5515 5516 5518 5519 5520 5521 5522 5523 5524 5524 5525 5525 5525 5525 5525 5525 5524 5524 5523 5522 5521 5520 5519 5518 5517 5515 5514 5512 5510 5509 5507 5506 5504 5502 5501 5499 5498 5496 5495 5492 5491 5489 5488
5502 5504 5505 5506 5507 5508 5509 5510 5511 5512 5512 5513 5513 5513 5513 5513 5512 5512 5511 5511 5510 5509 5508 5507 5506 5504 5503 5501 5499 5498 5496 5494 5493 5491 5489 5487 5486 5484 5483 5481 5480 5478 5476 5474
5491 5493 5494 5495 5496 5497 5498 5499 5500 5500 5501 5501 5501 5501 5501 5501 5500 5500 5499 5498 5497 5496 5495 5494 5493 5492 5490 5488 5486 5485 5483 5481 5479 5477 5476 5474 5472 5471 5469 5468 5466 5465 5463 5461
5481 5482 5483 5484 5485 5486 5486 5487 5488 5489 5489 5489 5489 5489 5489 5488 5488 5487 5486 5485 5484 5483 5482 5481 5480 5478 5477 5475 5473 5471 5470 5468 5465 5464 5462 5460 5458 5457 5455 5453 5452 5450 5449 5447
5470 5471 5472 5473 5474 5475 5475 5476 5476 5476 5477 5477 5477 5476 5476 5476 5475 5474 5473 5472 5471 5470 5469 5468 5466 5465 5463 5461 5459 5458 5456 5454 5452 5450 5448 5446 5445 5443 5441 5439 5437 5436 5434 5432
5460 5461 5462 5462 5463 5464 5464 5464 5464 5465 5465 5465 5464 5464 5463 5463 5462 5462 5461 5460 5459 5457 5456 5454 5453 5451 5449 5447 5446 5444 5442 5440 5439 5437 5435 5433 5431 5429 5427 5425 5423 5421 5420 5418
5450 5451 5451 5452 5452 5452 5453 5453 5453 5453 5452 5452 5452 5452 5451 5450 5449 5449 5448 5447 5445 5444 5443 5441 5439 5437 5435 5433 5432 5430 5428 5426 5424 5423 5421 5419 5417 5415 5413 5411 5409 5407 5406 5405
5441 5441 5441 5441 5441 5441 5442 5441 5441 5441 5441 5441 5441 5440 5439 5438 5437 5436 5435 5434 5432 5430 5429 5427 5426 5424 5422 5420 5418 5416 5414 5412 5411 5409 5407 5405 5403 5401 5399 5397 5396 5394 5393 5392
5432 5432 5432 5431 5431 5431 5431 5431 5430 5430 5430 5429 5429 5428 5427 5426 5425 5423 5422 5421 5419 5417 5415 5414 5412 5410 5409 5407 5405 5403 5401 5399 5397 5395 5393 5391 5390 5388 5386 5385 5383 5381 5380 5379
5423 5423 5422 5422 5422 5421 5421 5420 5420 5419 5419 5418 5417 5416 5415 5414 5412 5411 5409 5407 5406 5404 5402 5401 5399 5397 5395 5394 5392 5390 5388 5386 5384 5382 5380 5379 5377 5376 5374 5372 5371 5369 5368 5367
5415 5414 5413 5413 5412 5412 5411 5410 5409 5408 5407 5406 5405 5404 5402 5401 5399 5398 5397 5394 5392 5391 5390 5388 5386 5384 5383 5381 5379 5377 5375 5373 5372 5370 5368 5367 5366 5364 5363 5361 5360 5358 5357 5357
5406 5405 5404 5403 5402 5402 5401 5400 5398 5397 5396 5394 5393 5391 5390 5389 5387 5385 5384 5382 5380 5378 5377 5375 5374 5372 5370 5369 5368 5366 5364 5362 5360 5359 5357 5356 5354 5353 5351 5350 5349 5348 5347 5347
5397 5396 5395 5394 5393 5391 5390 5389 5388 5386 5385 5383 5382 5380 5378 5376 5375 5373 5372 5370 5368 5367 5365 5364 5362 5361 5359 5358 5357 5355 5353 5351 5350 5348 5347 5345 5344 5342 5341 5340 5339 5339 5338 5338
5388 5386 5385 5384 5382 5381 5379 5378 5377 5375 5373 5372 5370 5368 5366 5365 5363 5361 5360 5358 5357 5356 5354 5353 5352 5350 5349 5348 5346 5345 5343 5341 5340 5338 5337 5335 5334 5333 5332 5331 5330 5330 5330 5330
5378 5377 5376 5374 5373 5371 5369 5368 5366 5364 5362 5361 5359 5357 5355 5354 5352 5350 5349 5347 5346 5345 5344 5342 5341 5340 5339 5338 5336 5335 5333 5332 5330 5329 5327 5326 5325 5323 5323 5322 5322 5322 5322 5322